Theta_e
291 286 285 290 292 293 293 293 291 295 299 299 298 298 301 304 304 305 306 308 309 308 310 312 313 314 313 313 313 316 327 328 332 331 327 325 327 324 325 329 333 332 332 331
287 285 291 292 292 291 291 288 288 293 297 295 295 296 298 302 303 304 305 306 306 306 307 310 311 311 315 317 319 321 329 331 331 329 325 325 324 323 325 326 328 331 332 332
285 288 293 291 289 289 289 288 289 289 294 295 293 291 294 297 300 303 305 305 306 305 306 308 309 312 316 321 324 326 330 331 331 328 328 325 324 324 323 323 324 327 330 330
284 289 289 288 288 289 284 292 292 291 289 284 292 283 291 295 296 299 301 302 301 304 307 308 309 311 319 322 327 329 331 331 331 329 327 326 322 320 321 323 323 325 328 328
283 285 285 286 287 291 286 292 291 291 288 285 287 283 289 294 294 297 299 301 302 305 305 307 308 312 320 325 328 330 331 329 328 329 328 325 320 320 321 322 323 323 325 327
286 291 288 287 290 290 292 289 289 288 286 281 286 285 287 291 294 297 300 300 303 304 305 305 308 318 323 326 328 328 330 326 327 327 325 323 322 320 321 320 321 322 322 324
288 287 290 291 285 288 286 281 277 276 277 279 288 285 289 293 296 297 297 299 302 303 302 312 317 320 323 326 327 327 328 325 325 324 323 323 322 321 321 321 321 320 320 320
283 280 288 294 288 285 283 282 277 275 276 280 288 283 288 297 300 301 301 300 301 301 301 313 318 321 325 326 326 326 326 324 324 323 322 322 322 322 321 321 321 321 321 321
284 284 292 292 292 290 285 280 285 279 281 279 283 289 294 297 297 298 299 298 298 300 306 315 319 322 325 325 324 325 325 324 323 323 323 322 322 322 321 322 322 322 321 323
287 280 289 291 292 291 287 289 279 278 275 275 281 283 286 291 294 297 297 298 299 301 312 318 322 324 325 325 325 324 325 324 322 322 323 323 322 322 322 322 322 323 323 325
288 283 284 289 286 283 285 284 285 282 280 276 277 281 291 293 296 295 296 299 302 307 316 320 323 325 325 325 325 325 324 323 321 322 321 321 322 322 322 322 323 323 323 324
289 284 280 283 289 291 287 286 285 280 278 282 280 283 295 294 294 296 297 301 311 313 317 321 324 324 324 325 324 324 324 323 321 321 321 321 322 321 321 322 323 324 323 324
288 282 277 278 284 290 286 289 289 287 284 281 279 282 294 294 295 297 297 305 314 316 318 321 322 323 324 325 325 324 324 322 321 321 321 321 320 320 320 321 323 324 323 323
293 284 280 275 280 286 282 286 290 286 281 283 284 286 290 293 295 298 298 308 313 315 319 321 321 322 324 326 325 324 323 322 321 322 322 321 321 321 321 321 322 323 324 323
289 283 284 285 287 287 286 285 286 285 287 283 287 288 291 294 297 300 301 302 314 316 318 320 321 322 324 325 325 324 323 321 321 323 323 322 321 321 321 322 322 323 323 323
287 280 286 282 287 287 285 287 288 288 288 289 289 288 295 298 302 307 310 309 313 316 319 320 321 323 323 324 324 323 322 321 322 322 323 324 323 323 322 321 322 321 321 323
288 283 282 279 286 287 282 287 288 289 291 290 285 290 297 299 301 307 309 310 315 317 320 320 321 323 324 324 324 321 320 321 322 323 325 327 326 323 322 322 322 320 319 319
286 284 285 281 283 275 287 295 294 291 292 293 295 301 303 303 304 310 312 311 316 319 320 321 322 323 324 324 322 321 319 321 322 323 325 327 324 322 323 321 320 318 317 317
289 286 283 280 280 285 287 291 291 290 293 298 297 300 302 306 308 308 313 315 314 319 321 322 323 324 323 321 320 320 319 321 322 322 326 325 323 323 322 320 318 318 319 316
290 290 285 283 278 277 285 292 295 295 287 298 298 299 299 303 299 303 311 316 317 317 322 322 323 324 322 320 319 319 318 320 321 323 324 324 323 323 322 319 318 317 319 316
286 285 282 282 280 285 288 289 294 287 287 298 298 299 300 298 303 309 312 316 319 320 321 323 323 321 321 318 319 318 318 319 322 323 324 323 323 322 321 319 317 317 317 316
285 283 285 284 282 279 290 290 289 294 299 298 299 302 302 302 303 307 311 315 318 321 322 323 321 319 319 318 319 317 316 320 321 323 322 322 321 324 322 319 317 318 317 315
284 288 285 284 284 291 294 295 299 301 299 299 300 303 303 301 301 306 310 313 315 320 323 324 321 317 316 319 319 316 317 316 318 319 320 321 322 323 321 319 317 317 317 319
290 293 288 288 292 293 297 299 301 301 302 301 304 304 304 302 301 305 310 312 314 319 323 322 317 316 315 318 319 318 316 316 318 317 318 320 322 320 320 320 319 318 318 321
292 293 288 289 293 295 297 298 300 301 304 303 305 305 304 304 302 306 309 312 315 318 322 322 318 317 316 316 316 316 317 317 317 318 319 319 321 321 320 319 317 319 319 318
294 292 289 289 295 294 296 299 301 300 301 303 303 304 305 305 303 306 310 313 316 317 319 319 322 318 318 317 317 317 317 318 318 318 318 318 319 320 321 316 311 295 300 304
Wind_Speed
5 6 17 22 19 7 6 12 5 7 9 11 19 23 20 14 15 21 21 21 23 15 11 12 15 13 10 8 9 9 8 8 9 6 5 4 7 4 3 5 8 8 7 7
4 19 11 3 7 7 11 7 6 6 8 5 9 14 13 12 16 13 16 17 17 9 11 17 12 9 9 6 9 7 8 9 5 3 3 4 5 2 3 3 5 7 8 7
7 5 13 7 4 8 9 14 11 5 8 16 12 18 14 11 10 13 16 15 10 10 13 14 9 11 5 8 7 8 8 9 7 8 7 5 5 4 3 3 3 3 6 6
5 7 8 5 9 11 12 4 7 10 6 10 4 20 21 18 22 19 16 14 9 12 14 9 10 7 8 5 3 5 8 10 9 10 8 10 5 4 3 4 3 4 6 6
6 2 4 11 6 7 12 13 8 10 6 3 5 8 18 8 21 17 18 17 15 17 10 12 11 10 6 6 7 7 9 8 8 8 10 6 5 3 3 3 6 4 4 6
8 6 4 7 6 4 3 5 8 7 3 11 10 9 21 12 21 22 19 13 15 11 10 10 8 5 6 7 7 7 10 6 8 8 8 8 8 6 5 4 4 4 3 3
7 13 12 5 5 3 4 5 1 2 4 11 13 11 23 8 3 6 7 10 11 10 7 7 7 8 9 10 9 8 10 8 7 9 7 7 7 7 8 6 4 5 3 2
1 4 8 3 10 6 5 9 5 7 5 5 5 16 14 19 25 19 16 12 11 10 8 9 9 8 10 9 8 9 10 9 8 8 8 6 7 5 4 5 4 4 3 3
1 3 3 3 2 7 2 4 8 3 3 1 7 14 17 13 15 12 14 5 10 9 9 8 7 7 10 10 8 10 10 9 9 8 8 7 6 7 6 6 4 3 3 3
6 3 3 5 4 6 7 4 3 1 5 6 6 8 13 2 14 15 13 11 10 9 7 9 10 11 9 9 8 9 9 11 8 8 7 6 7 6 6 5 5 4 3 4
2 1 4 4 2 2 2 2 4 2 5 5 4 9 7 12 11 4 9 12 15 10 10 12 12 11 10 10 10 10 10 10 8 7 6 7 6 6 6 5 4 4 4 5
2 2 4 8 9 11 4 6 1 6 7 11 2 11 8 8 6 8 10 12 6 4 6 10 13 12 12 11 10 10 9 10 8 7 7 6 6 6 5 4 4 4 4 4
2 2 3 7 3 5 2 1 4 1 3 11 10 11 6 8 13 10 10 8 2 5 7 11 12 12 12 11 10 10 9 8 7 7 7 6 6 6 5 5 4 4 5 5
4 4 5 7 4 1 4 10 8 3 3 7 21 17 19 22 17 16 15 8 4 5 6 13 12 12 12 11 10 10 8 8 7 7 7 7 6 6 5 4 4 4 4 6
5 5 7 11 12 12 14 15 16 13 9 6 12 13 7 14 15 17 16 12 9 10 11 13 14 12 12 11 9 9 8 8 7 8 7 7 6 6 5 4 4 3 4 5
1 4 4 6 12 14 17 18 16 16 17 16 16 21 13 17 10 10 12 13 15 16 15 12 15 15 14 13 12 10 8 8 7 7 8 6 7 6 5 5 5 4 5 5
4 3 2 4 6 9 14 19 17 15 12 9 13 8 7 14 15 11 12 13 17 19 19 18 18 16 14 14 13 12 9 7 7 7 6 7 8 7 6 5 5 5 5 5
7 3 4 4 4 7 4 9 12 19 12 10 10 11 12 17 10 9 5 7 9 13 16 15 14 14 13 12 11 10 9 9 7 7 8 8 7 6 6 6 6 5 4 6
15 9 3 3 4 9 8 5 6 4 1 9 8 13 16 14 2 8 6 5 4 9 13 14 14 14 13 13 11 11 10 9 8 7 8 7 7 7 7 6 6 4 5 4
12 12 5 2 4 4 3 10 10 8 6 12 14 16 16 13 1 5 10 6 6 3 11 14 15 13 13 12 12 12 10 10 9 9 7 9 8 8 8 7 6 3 4 5
2 2 9 8 6 5 6 17 12 6 2 13 15 16 14 7 4 10 8 6 3 4 11 10 14 14 14 12 13 12 11 12 11 9 7 7 7 8 7 7 3 5 6 6
3 5 2 3 2 3 9 12 2 2 3 10 14 14 15 14 13 8 8 8 11 2 8 12 11 11 11 12 13 11 13 11 8 8 8 7 7 7 6 7 5 5 7 6
3 3 5 1 3 8 7 5 8 6 6 6 13 15 16 15 11 10 8 11 11 7 6 8 12 9 8 12 13 12 11 9 9 8 8 7 8 7 7 7 6 5 5 6
4 5 3 6 4 11 3 7 9 10 5 9 12 16 16 15 13 10 10 10 9 5 5 6 11 10 9 11 11 11 9 9 10 8 8 8 9 8 6 4 5 6 5 5
2 7 6 5 5 7 6 11 10 12 10 12 12 15 16 14 7 7 10 8 9 5 4 6 11 10 9 8 8 7 9 10 9 8 8 8 7 9 7 4 3 5 4 6
2 3 3 3 9 5 11 14 19 13 8 11 14 18 14 6 9 4 5 5 4 7 10 7 6 7 10 9 10 9 10 11 10 8 7 8 8 6 6 6 4 7 2 8
Wind_Direction
194 165 206 202 214 238 337 243 254 240 209 225 241 259 261 259 248 253 258 260 263 259 265 265 265 268 265 241 207 218 167 155 150 144 144 140 175 154 157 172 168 154 147 156
170 226 216 166 194 232 254 271 266 300 282 249 275 277 286 267 257 237 245 255 256 270 277 270 267 274 245 221 216 191 172 159 145 119 127 131 133 136 129 126 125 152 167 164
205 258 221 217 221 229 225 235 250 261 327 297 306 286 270 257 251 258 257 255 256 230 251 268 272 251 248 230 204 178 151 141 133 127 112 77 75 65 71 76 98 165 166 165
229 248 264 250 235 230 251 199 239 241 244 263 131 281 269 275 264 255 257 257 245 248 248 246 263 253 232 211 131 136 142 139 144 143 122 144 139 141 158 145 141 159 168 171
243 311 216 235 221 214 235 266 248 227 233 263 231 286 274 227 260 250 247 249 244 245 236 251 251 234 216 148 152 148 135 128 141 130 135 134 115 118 119 98 120 141 157 161
244 257 188 207 235 225 182 214 223 232 169 248 209 199 277 244 243 246 239 229 239 241 239 242 251 177 144 135 139 137 131 127 124 118 121 129 131 124 112 119 132 136 138 148
228 235 256 202 245 258 167 84 163 181 207 231 184 190 239 251 252 228 221 243 248 249 250 224 192 171 157 157 143 136 134 125 117 113 120 134 138 138 137 139 140 148 155 181
317 307 194 181 195 185 185 163 179 185 183 225 149 228 238 230 256 266 271 261 254 251 236 213 197 168 157 141 145 130 131 122 122 121 127 123 122 124 126 141 146 165 178 185
270 252 337 95 153 147 202 170 203 20 235 231 233 264 282 266 288 293 282 242 258 247 220 198 157 150 140 139 138 130 125 122 126 126 121 123 123 128 142 146 143 163 176 181
339 338 328 332 2 228 166 212 99 24 204 234 256 257 238 223 244 268 283 296 292 251 181 152 151 140 130 132 130 121 126 136 134 130 132 135 137 133 135 138 165 163 165 140
310 131 292 15 269 209 27 222 195 187 195 222 285 256 209 212 275 287 287 293 300 239 171 151 142 138 134 131 135 132 131 131 133 133 130 128 135 134 145 152 152 158 151 151
320 189 253 234 248 270 262 273 131 213 236 240 279 261 302 259 360 323 308 307 279 134 142 143 139 135 138 140 137 140 141 139 149 141 134 135 133 142 138 152 155 140 149 151
333 277 310 329 354 48 146 244 199 220 296 239 227 243 337 333 336 325 319 326 34 117 142 136 132 143 144 147 148 147 147 152 145 133 131 135 147 138 149 152 137 147 156 144
217 230 211 226 232 50 291 289 252 214 233 255 243 274 285 293 312 317 310 300 175 145 205 140 144 151 150 154 156 152 153 153 142 138 140 151 154 151 152 148 143 158 164 148
136 250 234 253 265 272 270 267 263 255 238 221 271 271 286 285 293 295 291 274 195 170 180 165 154 155 155 155 155 158 160 153 146 144 149 162 146 141 141 147 145 152 146 155
188 259 271 268 246 251 279 257 246 245 248 254 262 277 253 264 283 310 291 289 198 184 172 175 154 158 161 161 163 164 163 161 151 149 164 154 129 139 147 145 146 135 126 129
188 227 259 256 285 320 280 237 216 230 229 234 251 239 303 317 302 302 306 304 199 182 168 174 167 163 164 165 167 167 164 153 154 148 149 152 146 145 155 149 144 130 121 116
221 203 234 276 294 233 283 21 199 215 222 231 280 299 309 289 265 260 304 313 184 177 164 167 165 162 164 158 165 157 147 159 153 151 158 151 144 143 146 149 148 127 126 127
207 215 263 255 249 273 278 24 29 323 237 30 325 322 324 318 336 263 338 2 331 172 166 173 165 162 157 158 158 155 156 157 155 156 161 151 149 155 149 157 153 137 130 123
190 209 200 220 274 284 350 358 341 320 239 8 353 338 333 330 310 277 320 337 356 214 169 173 165 158 160 162 153 156 161 161 168 168 165 168 159 159 161 153 149 134 122 119
312 227 237 238 239 256 352 314 293 224 339 341 344 331 329 338 285 285 297 333 8 262 167 170 164 164 170 156 155 164 163 175 179 166 156 159 161 154 151 135 137 135 126 115
300 311 290 309 292 314 352 332 51 336 335 344 327 327 324 314 307 303 342 357 17 246 160 169 167 164 162 161 162 162 177 175 158 155 151 144 138 142 142 136 127 129 126 118
324 332 306 19 292 246 245 270 298 351 2 327 318 331 316 313 331 318 351 10 345 325 134 176 160 147 157 166 169 168 183 152 150 142 150 145 142 133 141 140 138 129 128 138
301 354 310 319 235 299 257 323 338 337 4 326 330 313 312 330 329 325 4 9 345 317 153 165 131 143 156 172 174 179 152 148 149 146 144 147 145 136 132 128 143 145 153 156
250 314 313 288 304 324 289 339 337 340 3 341 304 330 316 307 311 337 6 353 305 315 98 134 145 160 163 156 158 152 149 146 149 148 152 153 149 150 142 130 146 167 182 169
213 265 329 298 302 304 298 318 322 335 354 328 333 307 291 334 9 47 277 281 312 338 44 30 111 162 165 162 160 155 153 157 148 147 156 157 153 150 149 153 131 46 73 182